Regional Weather Roundup
Issued by NWS

Home | Current Version | Previous Version | Text Only | Print | Product List | Glossary On
Versions: 1 2 3 4 5 6 7 8 9 10 11 12 13 14 15 16 17 18 19 20 21 22 23 24 25 26 27 28 29 30 31 32 33 34 35 36 37 38 39 40 41 42 43 44 45 46 47 48 49 50
114
ASUS43 KDTX 091410
RWRMI
MICHIGAN HOURLY REGIONAL WEATHER ROUNDUP
NATIONAL WEATHER SERVICE DETROIT/PONTIAC MI
900 AM EST TUE FEB 09 2016

NOTE: "FAIR" INDICATES FEW OR NO CLOUDS BELOW 12,000 FEET WITH NO
SIGNIFICANT WEATHER AND/OR OBSTRUCTION TO VISIBILITY.

MIZ047>049-052>055-059>063-066>070-074>076-081>083-091500-
SOUTHEAST LOWER MICHIGAN

CITY           SKY/WX    TMP DP  RH WIND       PRES   REMARKS
ADRIAN         LGT SNOW  29  27  92 W7        29.60R VSB 3/4 WCI  22
ALMA           CLOUDY    26  23  87 NW14      29.62R WCI  15
ANN ARBOR      LGT SNOW  30  27  88 NW7       29.57S FOG     WCI  23
BAD AXE        LGT SNOW  28  27  94 NW14G20   29.51R VSB 1   WCI  17
CARO           CLOUDY    27  25  93 W10       29.54S VSB 1/2 WCI  17
DETROIT CITY   LGT SNOW  30  26  85 NW14      29.56R VSB 1   WCI  19
DETROIT        LGT SNOW  31  29  92 NW8       29.58R VSB 3/4 WCI  23
FLINT          LGT SNOW  28  23  81 NW20      29.58R VSB 3/4 WCI  15
GROSSE ILE     LGT SNOW  30  28  93 W5        29.56R VSB 1   WCI  25
HILLSDALE      CLOUDY    29  27  92 NW16      29.59R WCI  17
HOWELL         LGT SNOW  28  26  92 NW7       29.58R WCI  21

CITY           SKY/WX    TMP DP  RH WIND       PRES   REMARKS
JACKSON        LGT SNOW  28  24  85 NW14      29.60R FOG     WCI  17
LAMBERTVILLE   LGT SNOW  29  27  94 W6        29.60S VSB 3/4 WCI  22
LANSING        LGT SNOW  26  22  84 NW12      29.62R FOG     WCI  16
LAPEER         LGT SNOW  28  27  96 NW10G18   29.55R VSB 1   WCI  18
MASON          LGT SNOW  27  25  90 NW9G18    29.60R WCI  18
MONROE         LGT SNOW  30  28  93 SW9       29.58R WCI  22
MT. CLEMENS    LGT SNOW  31  29  94 NW13G21   29.53R VSB 1   WCI  21
PONTIAC        LGT SNOW  27  23  85 NW16      29.54R VSB 3/4 WCI  15
PORT HOPE        N/A     30  28  92 NW21G30   29.48R WCI  17
PORT HURON     SNOW      28  28 100 W5        29.52R VSB 1/2 WCI  23
TRI CITIES     LGT SNOW  28  23  81 NW17      29.59R VSB 3/4 WCI  16
MIDLAND        LGT SNOW  27  24  89 W12       29.58S WCI  16
TROY           LGT SNOW  31  28  90 W10       29.57R WCI  22
SAGINAW HB     LGT SNOW  28  27  93 W12       29.58R VSB 1   WCI  18
$$
MIZ043>046-050>051-056>058-064>065-071>073-077>080-091500-
SOUTHWEST LOWER MICHIGAN

CITY           SKY/WX    TMP DP  RH WIND       PRES   REMARKS
BATTLE CREEK   CLOUDY    26  21  81 NW12G21   29.64R WCI  16
BENTON HARBOR  LGT SNOW  27  21  78 NW9G20    29.72R VSB 1   WCI  18
BIG RAPIDS     CLOUDY    24  22  93 NW7G17    29.63R WCI  16
COLDWATER      CLOUDY    28  26  91 NW8       29.62R WCI  20
FREMONT        CLOUDY    24  20  86 NW12      29.67R WCI  13
HOLLAND        CLOUDY    26  20  77 NW7       29.69R WCI  18
GRAND RAPIDS   CLOUDY    26  20  77 NW16G25   29.66R WCI  14
IONIA          CLOUDY    25  20  82 NW12      29.63R WCI  14
KALAMAZOO      CLOUDY    27  21  78 NW13      29.65R WCI  16
LUDINGTON      LGT SNOW  24  20  87 N14G23    29.70S WCI  11
MARSHALL       CLOUDY    27  23  85 NW10      29.62R WCI  17
MOUNT PLEASANT CLOUDY    26  20  78 NW10G18   29.61R WCI  17
MUSKEGON       FLURRIES  25  18  74 NW14G21   29.70R WCI  13
SOUTH HAVEN    LGT SNOW  27  22  82 NW15G26   29.70R WCI  16
$$
MIZ016>042-091500-
NORTHERN LOWER MICHIGAN

CITY           SKY/WX    TMP DP  RH WIND       PRES   REMARKS
ALPENA         LGT SNOW  26  22  84 NW13G21   29.56R FOG     WCI  15
BEAVER ISLAND  CLOUDY    23  20  89 NW10G20   29.66S WCI  12
BELLAIRE       CLOUDY    25  20  82 NW5       29.66S WCI  19
CADILLAC       CLOUDY    24  20  88 NW10      29.60R WCI  13
CHARLEVOIX     CLOUDY    24  21  86 NW12      29.68S WCI  13
FRANKFORT      CLOUDY    24  19  83 N10G17    29.70R WCI  13
GAYLORD        CLOUDY    23  18  81 NW10G17   29.58R WCI  12
GRAYLING       LGT SNOW  24  19  83 NW10G16   29.60R WCI  13
HARBOR SPRINGS CLOUDY    25  20  83 W8        29.63S WCI  16
HOUGHTON LAKE  LGT SNOW  23  19  85 NW15G22   29.59R FOG     WCI  10
MANISTEE       CLOUDY    25  18  74 N13G21    29.70R WCI  13
OSCODA         LGT SNOW  26  24  91 NW13      29.52R WCI  15
PELLSTON       LGT SNOW  24  21  88 NW14      29.62S FOG     WCI  12
ROGERS CITY    LGT SNOW  27  24  89 NW9       29.58S VSB 3/4 WCI  17
TRAVERSE CITY  FLURRIES  26  19  74 NW14G24   29.66R WCI  14
$$
MIZ007>008-015-091500-
EASTERN UPPER MICHIGAN

CITY           SKY/WX    TMP DP  RH WIND       PRES   REMARKS
KINROSS        CLOUDY    25  23  93 NW14      29.58S WCI  13
MACKINAC ISLAN LGT SNOW  25  25 100 NW7       29.60S WCI  17
NEWBERRY       CLOUDY    22  21  97 NW10G16   29.64R WCI  11
S. S. MARIE    LGT SNOW  28  24  85 NE5       29.58F FOG     WCI  23
MUNISING         N/A     19  14  81 N20G29    29.72S WCI   3
$$
MIZ004>006-011>014-085-091500-
CENTRAL UPPER MICHIGAN

CITY           SKY/WX    TMP DP  RH WIND       PRES   REMARKS
MANISTIQUE     CLOUDY    20  14  77 N20G26    29.67S WCI   5
ESCANABA       CLOUDY    16   7  67 NW10G17   29.74S WCI   3
MENOMINEE      CLOUDY    14   5  67 NW13G20   29.78S WCI   0
SAWYER-GWINN   LGT SNOW  12   9  85 N20G26    29.72R VSB 1   WCI  -6
$$
MIZ001>003-009>011-084-091500-
WESTERN UPPER MICHIGAN

CITY           SKY/WX    TMP DP  RH WIND       PRES   REMARKS
IRON MOUNTAIN  LGT SNOW  11   3  70 N16       29.76S VSB 1   WCI  -6
HOUGHTON       HAZE      10   4  76 N18G29    29.83R VSB 1   WCI  -8
COPPER HARBOR    N/A     17  13  84 NE28G35   29.82S WCI  -2
IRONWOOD       CLOUDY    10   7  85 N15G21    29.87S VSB 1/2 WCI  -6
$$

ABBREVIATIONS USED IN REMARKS
   TC - TEMPERATURE IN CELSIUS
  WCI - WIND CHILL INDEX
   HX - HEAT INDEX
  VSB - VISIBILITY





USA.gov is the U.S. government's official web portal to all federal, state and local government web resources and services.